Location: Arroyo Retuerta
(40.5469°N, 4.3534°W)
Time: 04:46:17
(UTC+00:00)

CENTAUR R/B - Pass Details

Date: 01 June 2020
Orbit: 759 x 1428 km, 63.5° (Epoch: 15 June)

Event Time Altitude Azimuth Distance (km) Brightness Sun altitude
Rises 23:04:08 0° 325° (NW) 4,195 7.0 -25.1°
Reaches altitude 10° 23:06:48 10° 325° (NW) 3,302 6.2 -25.2°
Maximum altitude 23:15:04 90° 240° (WSW) 1,396 3.2 -25.7°
Enters shadow 23:18:15 46° 148° (SSE) 1,835 3.4 -25.8°
